Houston Clover, TX

1:39 AM CST on November 20, 2019 (GMT -0600)
Clover

Weather History for KLVJ - September, 2019

Change the Weather History Date:

Wednesday, September 18, 2019

  Actual Average (WUND) Record (WUND)
Temperature  
Mean Temperature 80 °F -  
Max Temperature 86 °F - - (-1)
Min Temperature 73 °F - - (-1)
Cooling Degree Days 14    
Growing Degree Days 30 (Base 50)    
Moisture  
Dew Point 74 °F    
Average Humidity 93    
Maximum Humidity 100    
Minimum Humidity 70    
Precipitation  
Precipitation 1.65 in - - ()
Sea Level Pressure  
Sea Level Pressure 29.88 in    
Wind  
Wind Speed 8 mph (SSW)    
Max Wind Speed 14 mph    
Max Gust Speed 21 mph    
Visibility 7 miles    
Events Rain , Thunderstorm    
Averages and records for this station are not official NWS values.
T = Trace of Precipitation, MM = Missing Value Source: NWS Daily Summary

Daily Weather History Graph

Daily Weather History Graph

Search for Another Location

Airport or City:

Astronomy

Sep. 18, 2019 Rise Set
Actual Time 7:07 AM CDT 7:22 PM CDT
Civil Twilight 6:43 AM CDT 7:46 PM CDT
Nautical Twilight 6:15 AM CDT 8:14 PM CDT
Astronomical Twilight 5:47 AM CDT 8:42 PM CDT
Moon 10:15 PM CDT (9/18) 10:54 AM CDT (9/18)
Length of Visible Light 13h 03m
Length of Day
12h 15m
Waning Gibbous, 82% of the Moon is Illuminated
Sep 18
Waning Gibbous
Sep 21
Last Quarter
Sep 28
New
Oct 5
First Quarter
Oct 13
Full

Hourly Weather History & Observations

Time (CDT) Temp. Heat Index Dew Point Humidity Pressure Visibility Wind Dir Wind Speed Gust Speed Precip Events Conditions
12:06 AM 75.9 °F - 73.9 °F 94% 29.86 in 10.0 mi South 12.7 mph - 0.00 in Rain Light Rain
12:53 AM 75.9 °F - 73.9 °F 94% 29.86 in 4.0 mi South 8.1 mph - 0.03 in Rain Rain
1:03 AM 75.9 °F - 73.9 °F 94% 29.86 in 2.5 mi SSE 12.7 mph 18.4 mph 0.05 in Rain Heavy Rain
1:10 AM 75.9 °F - 73.9 °F 94% 29.85 in 5.0 mi South 12.7 mph - 0.05 in Rain Light Rain
1:46 AM 75.9 °F - 73.9 °F 94% 29.85 in 5.0 mi South 9.2 mph - 0.16 in Rain Rain
1:53 AM 75.9 °F - 73.9 °F 94% 29.85 in 7.0 mi SSE 8.1 mph - 0.16 in Rain Light Rain
2:01 AM 75.9 °F - 73.9 °F 94% 29.85 in 2.5 mi South 12.7 mph - 0.11 in Rain Heavy Rain
2:03 AM 75.9 °F - 73.9 °F 94% 29.85 in 1.8 mi South 13.8 mph - 0.20 in Rain Heavy Rain
2:15 AM 75.9 °F - 75.0 °F 97% 29.85 in 3.0 mi SSE 9.2 mph - 0.29 in Rain Light Rain
2:23 AM 75.9 °F - 75.0 °F 97% 29.85 in 2.5 mi WNW 6.9 mph - 0.37 in Rain Heavy Rain
2:30 AM 75.9 °F - 75.0 °F 97% 29.85 in 1.8 mi Variable 3.5 mph - 0.41 in Rain Heavy Rain
2:34 AM 75.9 °F - 73.9 °F 94% 29.85 in 3.0 mi South 8.1 mph - 0.41 in Rain Light Rain
2:45 AM 75.9 °F - 73.9 °F 94% 29.85 in 10.0 mi South 6.9 mph 20.7 mph 0.41 in   Overcast
2:53 AM 75.9 °F - 75.0 °F 97% 29.86 in 8.0 mi South 5.8 mph - 0.41 in Rain Light Rain
3:00 AM 75.9 °F - 75.0 °F 97% 29.86 in 7.0 mi SSW 5.8 mph - 0.00 in Rain Light Rain
3:36 AM 75.9 °F - 75.0 °F 97% 29.85 in 10.0 mi South 9.2 mph - 0.00 in   Overcast
3:53 AM 75.9 °F - 73.9 °F 94% 29.85 in 10.0 mi South 9.2 mph - 0.00 in   Overcast
4:18 AM 75.9 °F - 73.9 °F 94% 29.85 in 10.0 mi South 9.2 mph - N/A   Overcast
4:46 AM 75.0 °F - 73.0 °F 94% 29.85 in 10.0 mi South 8.1 mph - N/A Thunderstorm Overcast
4:53 AM 75.0 °F - 73.9 °F 96% 29.85 in 10.0 mi South 6.9 mph - N/A Thunderstorm Overcast
5:01 AM 75.0 °F - 73.9 °F 96% 29.84 in 8.0 mi South 6.9 mph - 0.00 in Rain Light Rain
5:53 AM 75.0 °F - 73.9 °F 96% 29.86 in 10.0 mi South 4.6 mph - 0.02 in   Overcast
6:53 AM 75.0 °F - 73.9 °F 96% 29.88 in 6.0 mi SSW 5.8 mph - 0.13 in Rain Light Rain
7:21 AM 75.0 °F - 73.9 °F 96% 29.88 in 5.0 mi South 5.8 mph - 0.07 in Rain Rain
7:53 AM 75.0 °F - 73.9 °F 96% 29.88 in 4.0 mi SSW 4.6 mph - 0.20 in Rain Rain
8:46 AM 75.0 °F - 73.0 °F 94% 29.90 in 2.0 mi South 5.8 mph - 0.18 in Rain Heavy Rain
8:53 AM 75.0 °F - 73.0 °F 94% 29.90 in 3.0 mi South 8.1 mph - 0.20 in Rain Rain
9:06 AM 73.9 °F - 73.0 °F 97% 29.90 in 1.8 mi South 8.1 mph - 0.08 in Rain Heavy Rain
9:18 AM 73.9 °F - 73.0 °F 97% 29.91 in 3.0 mi South 5.8 mph - 0.12 in Rain Rain
9:30 AM 73.9 °F - 73.0 °F 97% 29.91 in 2.5 mi South 6.9 mph - 0.15 in Rain Rain
9:50 AM 73.4 °F - 73.4 °F 100% 29.91 in 1.5 mi South 6.9 mph - 0.26 in Rain Rain
9:53 AM 73.9 °F - 73.0 °F 97% 29.91 in 2.0 mi South 6.9 mph - 0.27 in Rain Rain
10:07 AM 73.9 °F - 73.0 °F 97% 29.92 in 4.0 mi South 8.1 mph - 0.03 in Rain Rain
10:21 AM 73.9 °F - 73.0 °F 97% 29.92 in 5.0 mi South 4.6 mph - 0.05 in Rain Light Rain
10:32 AM 75.0 °F - 73.0 °F 94% 29.93 in 4.0 mi SSW 6.9 mph - 0.06 in Rain Light Rain
10:53 AM 75.0 °F - 73.9 °F 96% 29.92 in 6.0 mi South 5.8 mph - 0.09 in Rain Light Rain
11:14 AM 75.9 °F - 73.9 °F 94% 29.92 in 9.0 mi South 4.6 mph - 0.01 in Rain Light Rain
11:24 AM 75.9 °F - 75.0 °F 97% 29.92 in 10.0 mi SSW 5.8 mph - 0.01 in Rain Light Rain
12:06 PM 77.0 °F - 75.0 °F 94% 29.93 in 10.0 mi South 5.8 mph - N/A   Overcast
12:30 PM 78.1 °F - 75.0 °F 90% 29.92 in 10.0 mi South 5.8 mph - N/A   Overcast
12:45 PM 78.1 °F - 75.0 °F 90% 29.92 in 10.0 mi SSW 4.6 mph - N/A   Overcast
12:53 PM 78.1 °F - 75.0 °F 90% 29.91 in 10.0 mi SSW 5.8 mph - N/A   Overcast
1:40 PM 80.1 °F 85.4 °F 75.9 °F 87% 29.91 in 10.0 mi South 6.9 mph - N/A   Mostly Cloudy
1:53 PM 81.0 °F 87.3 °F 75.9 °F 85% 29.90 in 10.0 mi SSW 4.6 mph - N/A   Mostly Cloudy
2:53 PM 84.0 °F 91.9 °F 75.0 °F 74% 29.88 in 10.0 mi SSW 6.9 mph - N/A   Scattered Clouds
3:53 PM 86.0 °F 95.1 °F 75.0 °F 70% 29.85 in 10.0 mi SW 6.9 mph - N/A   Mostly Cloudy
4:53 PM 84.9 °F 93.3 °F 75.0 °F 72% 29.84 in 10.0 mi SSW 10.4 mph - N/A   Mostly Cloudy
6:16 PM - - - N/A% 29.85 in 10.0 mi SSW 4.6 mph - N/A Thunderstorm Thunderstorm
6:31 PM - - - N/A% 29.85 in 9.0 mi SW 8.1 mph - 0.00 in Rain , Thunderstorm Light Rain
6:46 PM - - - N/A% 29.86 in 6.0 mi West 3.5 mph - 0.01 in Rain , Thunderstorm Thunderstorms and Rain
6:53 PM - - - N/A% 29.88 in 5.0 mi WNW 4.6 mph - 0.01 in Rain , Thunderstorm Light Thunderstorms and Rain
7:01 PM - - - N/A% 29.87 in 6.0 mi NNE 4.6 mph - 0.01 in Rain , Thunderstorm Light Rain
7:11 PM - - - N/A% 29.85 in 3.0 mi East 5.8 mph - 0.06 in Rain Heavy Rain
7:53 PM 79.0 °F - 72.0 °F 79% 29.85 in 10.0 mi SSW 6.9 mph - 0.09 in   Mostly Cloudy
8:53 PM - - - N/A% 29.88 in 10.0 mi North 4.6 mph - N/A   Overcast
9:53 PM - - - N/A% 29.88 in 10.0 mi Calm Calm - 0.02 in Rain Light Rain
10:53 PM - - - N/A% 29.88 in 10.0 mi Calm Calm - 0.02 in   Clear
11:53 PM 75.9 °F - 73.9 °F 94% 29.87 in 10.0 mi Calm Calm - N/A   Scattered Clouds